Regional Weather Roundup
Issued by NWS Newport/Morehead, NC

Home | Current Version | Previous Version | Text Only | Print | Product List | Glossary On
Versions: 1 2 3 4 5 6 7 8 9 10 11 12 13 14 15 16 17 18 19 20 21 22 23 24 25 26 27 28 29 30 31 32 33 34 35 36 37 38 39 40 41 42 43 44 45 46 47 48 49 50
000
ASUS42 KMHX 020025
RWRMHX
WEATHER ROUNDUP FOR EASTERN NORTH CAROLINA
NATIONAL WEATHER SERVICE NEWPORT/MOREHEAD CITY NC
800 PM EDT TUE SEP 01 2015

NOTE: "FAIR" INDICATES FEW OR NO CLOUDS BELOW 12,000 FEET
WITH NO SIGNIFICANT WEATHER AND/OR OBSTRUCTIONS TO VISIBILITY

NCZ015>017-031-032-045>047-102-103-020100-
NORTH COAST

CITY           SKY/WX    TMP DP  RH WIND       PRES   REMARKS
EDENTON        PTCLDY    75  71  85 CALM      30.05R
ELIZABETH CITY CLEAR     78  72  81 SE6       30.03S
KITTY HAWK     CLEAR     75  68  77 CALM      30.04R
MANTEO         CLEAR     75  73  91 CALM      30.04S

$$

NCZ045>047-081-094-103-104-020100-
CENTRAL COAST

CITY           SKY/WX    TMP DP  RH WIND       PRES   REMARKS
FRISCO         MOCLDY    77  72  84 CALM      30.05R
SWANQUARTER      N/A     77 N/A N/A E2        30.00S

$$

NCZ095-097-098-100-101-020100-
SOUTHERN COAST

CITY           SKY/WX    TMP DP  RH WIND       PRES   REMARKS
BEAUFORT       PTCLDY    79  75  87 W9        30.05R
CEDAR ISLAND     N/A     79 N/A N/A SE1       30.09S
JACKSONVILLE   CLEAR     78  73  84 S5        30.05R
PINEY ISLAND   CLOUDY   N/A N/A N/A SE3       30.04S
WILMINGTON     PTCLDY    79  74  84 S5        30.06R


$$

NCZ011>013-027>030-043-044-078>080-089-090>093-098-020100-
COASTAL PLAIN

CITY           SKY/WX    TMP DP  RH WIND       PRES   REMARKS
AHOSKIE        PTCLDY    74  72  91 CALM      30.05R
CLINTON        PTCLDY    78  73  86 CALM      30.06R
ELIZABETHTOWN  CLEAR     80  72  76 CALM      30.06R
GOLDSBORO      CLEAR     80  73  78 CALM      30.04R
GREENVILLE     CLEAR     77  73  88 CALM      30.07R
HAVELOCK       PTCLDY    79  71  76 SW3       30.06R
KENANSVILLE      N/A     75  73  93 CALM      30.07R
KINSTON        CLEAR     77  72  83 CALM      30.06R
NEW BERN       CLEAR     78  74  87 CALM      30.06R
RICHLANDS      CLEAR     77  70  78 CALM      30.06R
ROCKY MOUNT    CLEAR     80  71  74 SE3       30.05R
WASHINGTON     CLEAR     76  72  87 CALM      30.05R
WHITEVILLE     PTCLDY    82  75  80 S6        30.06R

$$

AMZ130-135-150-152-154-156-158-170-250-252-270-ANZ085-086-088-633-658-670-020100-
MARINE OBSERVATIONS

STATION/POSITION TIME  TEMP    WIND        PRES    WAVE   SWELL
                       AIR SEA DIR/SP/G            HT/PER HT/PER
                 (UTC) (F)     (DEG/KT/KT) (MB)    (FT/S) (FT/S)
CHESAPEAKE LIGHT 0000   77     190/  3/  3 1017.8
64 E VA BEACH    2350   78 80  360/  4/  4 1016.7    2/ 8   2/ 8
DUCK             0000   78 79  120/  4/  4 1016.4
2 E DUCK         2311      82                N/A     1/ 9
OREGON INLET     0000   78 81   40/  1/  2 1017.2
13E OREGON INLT  0000      80                N/A     2/ 9
HATTERAS CG      0000   80 82   60/  1/  2 1017.2
DIAMOND BUOY     2350   80 84   10/  4/  6 1017.5    2/ 7   2/ 7
CAPE LOOKOUT     0000   79     220/  6/  7 1017.3
BEAUFORT LAB     0000   80 80  250/  4/  7 1016.9
30 SE NEW RVR IN 2308   81 82  230/  6/  8 1017.8
30 SE NEW RVR IN 2325      83                N/A     2/ 6
27 SE WRIGHTSVLE 0000   77 82  250/  8/ 10   N/A
5 SE WRIGHTSVLE  2308   81 82  210/ 10/ 14 1017.7
225 S CAPE HAT   2350   83 85  250/  6/  8 1018.0    3/ 6   3/ 6
41 SE CHARLESTON 2350   82 83  120/  6/  8 1017.9    2/ 7   2/ 7

$$



USA.gov is the U.S. government's official web portal to all federal, state and local government web resources and services.